Voltar ao catálogo

COSMOS 1275 DEB

AtivoPO
NORAD 42136·DEBRIS·🇷🇺 Russia

Lançado Jun 4, 1981 de Plesetsk Cosmodrome

Loading…

Próximas Passagens (próximas 24 horas)

TLE

AtualizadoSource: Space-Track

Época: Sep 13, 2026, 07:53 UTC

1 42136U 81053QY  26256.32896252  .00001326  00000-0  89531-3 0  9992
2 42136  83.0187 282.0755 0063313   0.4667 359.6550 13.98794463649841

Acompanhe COSMOS 1275 DEB em tempo real com AllMySat

Download on the App Store